Regional Weather Roundup
Issued by NWS Wakefield, VA

Home | Current Version | Previous Version | Graphics & Text | Print | Product List | Glossary On
Versions: 1 2 3 4 5 6 7 8 9 10 11 12 13 14 15 16 17 18 19 20 21 22 23 24 25 26 27 28 29 30 31 32 33 34 35 36 37 38 39 40 41 42 43 44 45 46 47 48 49 50
000
ASUS41 KAKQ 030614
RWRAKQ

REGIONAL WEATHER ROUNDUP
NATIONAL WEATHER SERVICE WAKEFIELD VA
200 AM EDT THU SEP 03 2015

Note: "fair" indicates few or no clouds below 12,000 feet with no
significant weather and/or obstructions to visibility. * = Denotes
station may not report precipitation (e.g., rain,snow,etc.),
thunder or fog.

VAZ042-051-052>054-056-030700-
NORTHERN VIRGINIA

CITY           SKY/WX    TMP DP  RH WIND       PRES   REMARKS
WASH NATIONAL  FAIR      76  68  76 W5        29.93F
DULLES         FAIR      69  67  93 CALM      29.95F
FORT BELVOIR   FAIR      69  67  94 CALM      29.93F
QUANTICO       FAIR      72  66  81 NW5       29.94F
FREDERICKSBRG* FAIR      73  69  88 W3        29.94F
STAFFORD*      FAIR      68  65  88 CALM      29.98F
WARRENTON      FAIR      67  67  98 CALM      29.95F
CULPEPER*      FAIR      65  64  99 CALM      29.96F FOG
MANASSAS*      FAIR      70  70 100 CALM      29.94F
LEESBURG*      FAIR      72  70  94 CALM      29.95F
WINCHESTER     FAIR      68  66  94 CALM      29.97F
FRONT ROYAL*   FAIR      66  64  94 S8        29.97F
LURAY*         FOG       63  63 100 CALM      30.01F VSB 1
$$

VAZ048-049-060>072-079>083-030700-
CENTRAL AND SOUTH CENTRAL VIRGINIA

CITY           SKY/WX    TMP DP  RH WIND       PRES   REMARKS
RICHMOND       FAIR      71  67  87 NW3       29.95F
CHESTERFIELD*  FAIR      68  55  64 NW5       29.96F
PETERSBURG*    FAIR      68  68 100 CALM      29.96F
HANOVER        FAIR      69  67  93 SW5       29.97F
TAPPAHANNOCK*  FAIR      70  65  85 W3        29.95F
QUINTON*       FAIR      69  68  98 W7        29.94F
CHARLOTTSVILLE FAIR      68  65  90 W3        29.97F
GORDONSVILLE*  FAIR      64  64  97 CALM      29.96F
ORANGE*        FAIR      68  64  88 S3        29.98F
LOUISA*        FAIR      70  66  88 W3        29.95F
BUMPASS*       FAIR      67  66  99 CALM      29.96F
FARMVILLE*     FAIR      67  67 100 CALM      29.96F
CREWE*         FAIR     N/A N/A N/A CALM      29.97F
FORT PICKETT*  FAIR      66  65  97 SW5       29.97F
CHASE CITY*    FAIR      69  69 100 CALM      29.99F
CLARKSVILLE*   CLOUDY    68  68 100 CALM      29.98F VSB 3/4
SOUTH HILL*    FAIR      67  67 100 CALM      30.03F
LAWRENCEVILLE* FAIR      68  68 100 CALM      29.96F
EMPORIA*       FAIR      68  68 100 CALM      29.97F FOG
$$

VAZ088>098-030700-
SOUTHEAST VIRGINIA

CITY           SKY/WX    TMP DP  RH WIND       PRES   REMARKS
NORFOLK        FAIR      74  69  85 W3        29.93F
VIRGINIA BEACH MOCLDY    75  69  81 NW3       29.93F
NORFOLK NAVAL  MOCLDY    75  69  81 W5        29.95F
WEST POINT*    FAIR      74  69  83 W5        29.95F
SALUDA*        FAIR      72  69  91 NW5       29.93F
NEWPORT NEWS   FAIR      74  70  87 W6        29.94F
LANGLEY AFB    CLOUDY    72  70  95 W3        29.93F
FORT EUSTIS    CLOUDY    74  74 100 W2        29.92F
WILLIAMSBURG*  FAIR      73  72  94 NW5       29.95F
HR EXEC AP*      N/A     70  66  88 CALM      29.96F
FRANKLIN*      FAIR      70  69  99 NW3       29.96S FOG
WAKEFIELD      FAIR      72  68  87 CALM      29.95F FOG
$$

VAZ020-022-025-037-045-030700-
WEST CENTRAL AND SOUTHWEST VIRGINIA

CITY           SKY/WX    TMP DP  RH WIND       PRES   REMARKS
STAUNTON*      FAIR      66  64  92 W3        30.04F FOG
WAYNESBORO*    FAIR      65  63  95 CALM      30.03F
HOT SPRINGS VA FAIR      65  60  82 NW9       30.14F
LYNCHBURG      FAIR      63  62  97 CALM      30.01F
DANVILLE       FAIR      67  64  90 S5        30.00F
SOUTH BOSTON*  CLOUDY    65  64  95 CALM      29.99F VSB 1/4
MARTINSVILLE   FAIR      65  65 100 CALM      30.04F FOG
ROANOKE        FAIR      68  64  87 SE5       30.04F
BLACKSBURG     FAIR      65  64  97 CALM      30.12F
DUBLIN*        CLOUDY    67  64  90 CALM      30.10F
MARION*        FAIR      63  62  94 CALM      30.14F FOG
HILLSVILLE*    FAIR      66  63  88 CALM      30.12S
RICHLANDS*     FAIR      66  35  32 CALM      30.12F
WISE*          FAIR      66  64  94 CALM      30.14F
ABINGDON*      FAIR      67  62  83 CALM      30.10F
$$

MDZ021>025-VAZ099-100-030700-
SOUTHERN MARYLAND AND THE DELMARVA PENINSULA

CITY           SKY/WX    TMP DP  RH WIND       PRES   REMARKS
PATUXENT RIVER FAIR      74  66  76 W9        29.92F
BAY BRIDGE APT   N/A     77  68  73 W7        29.91F
LEONARDTOWN    NOT AVBL
DOVER          FAIR      73  71  91 SW2       29.88F
GEORGETOWN     FAIR      73  70  90 SW3       29.91F FOG
EASTON         NOT AVBL
CAMBRIDGE      FAIR      72  68  88 CALM      29.90F
SALISBURY      FAIR      73  72  96 SW3       29.90F FOG
OCEAN CITY     FAIR      76  72  87 W6        29.90F
WALLOPS ISLAND FAIR      75  73  93 W5        29.91F
ACCOMACK*      FAIR     N/A N/A N/A W6        29.92F
$$

NCZ012>017-030>032-030700-
NORTH CENTRAL AND EASTERN NORTH CAROLINA

CITY           SKY/WX    TMP DP  RH WIND       PRES   REMARKS
ROANOKE RAPIDS FAIR      68  68 100 CALM      29.97S
RALEIGH        FAIR      71  69  93 CALM      29.98F
ELIZABETH CITY FAIR      71  69  93 W3        29.94F
AHOSKIE*       FAIR      69  68  98 CALM      29.96S FOG
EDENTON*       LGT RAIN  72  70  93 SW10      29.94F
CURRITUCK*     FAIR      71  69  91 SW5       29.95S
KILL DEVIL HLS MOCLDY    76  69  80 W10G16    29.94R
MANTEO         FAIR      75  70  84 W9        29.95S
CAPE HATTERAS  CLOUDY    79  73  82 W6        29.95F
TARBORO*       FAIR      70  68  95 CALM      29.96S
GOLDSBORO      LGT RAIN  73  70  88 N20G28    30.00R
WASHINGTON     RAIN      70  68  95 SE10      29.95F
GREENVILLE     DRIZZLE   70  70 100 E5        29.97F
NEW BERN       LGT RAIN  71  67  87 N10G17    29.99F
WILMINGTON     FAIR      78  73  84 SW7       29.96F
$$

VAZ048-030700-
ELSEWHERE

CITY           SKY/WX    TMP DP  RH WIND       PRES   REMARKS
HARRISBURG PA  FAIR      74  66  76 NW9       29.91F
BALTIMORE      FAIR      72  68  87 CALM      29.92S
ANNAPOLIS      FAIR      76  71  85 NW5       29.90F
ANDREWS AFB    FAIR      74  68  81 W7        29.92F
PHILADELPHIA   FAIR      77  70  79 CALM      29.89F
HENDERSON NC   FAIR      67  65  92 CALM      29.99F FOG
GREENSBORO     FAIR      74  68  81 CALM      30.00F
ROCKY MOUNT    FAIR      71  70  96 SW5       29.96F
$$

VAZ100-030700-
MARINE

STATION/POSITION TIME  TEMP    WIND        PRES    WAVE   SWELL
                       AIR SEA DIR/SP/G            HT/PER HT/PER
                 (UTC) (F)     (DEG/KT/KT) (MB)    (FT/S) (FT/S)
BRANDYWINE LGT   0500   77 76  260/  8/  8 1012.9F
CAPE MAY NJ      0500   76 81  230/  3/  4 1012.4F
LEWES DE         0500   76 76  250/  2/  3 1012.7S
15NM E FENWICK I 0550   79 79  240/  8/ 10 1012.4F   1/14   2/14
OCEAN-CITY-INLET 0500   77 78  290/  5/  6 1012.1F
THOMAS POINT MD  0500   78 81  290/  9/ 10 1013.6F
GOOSES REEF MD   0600   78 80  290/ 12/ 14 1013.8F
COVE POINT MD    0500   76     310/ 10/ 13 1013.8F
SOLOMONS ISLAND  0500      81                N/A
BISHOPS HEAD MD  0500   79 82  290/ 12/ 15 1012.5F
PINEY POINT MD   0505          320/ 13/ 14   N/A
POTOMAC MD       0600   76 80  270/ 12/ 14 1012.3F   1/ 2
CAMBRIDGE MD     0500   77 81  280/  4/  5 1012.3F
LEWISETTA VA     0500   74 81  250/  5/  6 1013.5R
RAPPAHANNOCK LGT 0500          250/ 10/ 12 1014.4S
STINGRAY PT      0600   76 80  260/  8/ 10 1013.7F   1/ 2
YORK RVR RNG VA  0500   76     310/  6/  7 1013.5S
YORKTOWN VA      0500   74 81  250/  5/  6 1013.7S
JAMESTOWN VA     0600   74 81  310/  8/ 10   N/A
DOMINION TERM VA 0500   75     250/  8/  9 1014.0R
KIPTOPEKE VA     0500      80  300/ 10/ 12   N/A
CHES BAY BRIDGE  0500   75 79  230/  8/  9 1013.5R
CAPE HENRY VA    0500   73     240/  6/  8   N/A
CHESAPEAKE LGHT  0500   76     270/ 12/ 14 1014.4F
WILLOUBY STN VA  0500   76     250/  9/ 11 1015.0R
CAPE HENRY BUOY  0528      80                N/A     2/13
1ST LANDING BUOY 0600      79              1013.3F   1/ 3
CAPE CHARLES BUO 0526      79                N/A     2/13   2/13
OFFSHORE WE BUOY 0511      79                N/A     2/ 3   2/ 9
64NM E OF VA BCH 0550   79 79  300/ 12/ 14 1013.0F   1/ 9   2/ 9
DUCK PIER NC     0500   77 80  290/ 12/ 13 1013.0F
44100 DUCK FRF   0524      79                N/A     2/13
44056 DUCK FRF   0511      81                N/A     1/13
OREGON INLET NC  0500   80 84  250/ 10/ 12 1013.7F
HATTERAS NC      0500   80 83  240/  4/  6 1014.2S
DIAMOND SHLS NC  0550   82 85  250/  8/ 10 1014.3F   1/14   2/14
CAPE LOOKOUT NC  0600   80     250/  8/ 11 1014.0F
$$


USA.gov is the U.S. government's official web portal to all federal, state and local government web resources and services.